This demonstration page uses our WeatherBlox Daily Observations layout. Learn more.

Left ArrowRight Arrow

Hourly Observations for March 7, 2022

Temp ( °F °C ) Dew Point ( °F °C ) Humidity (%) Winds ( mph kmh ) Pressure ( in mb ) Visibility ( mi km ) Precip ( " mm )
12:13 am 00:13 Cloudy with Light Snow 21 -6 18 -8 86 86 NW 9 15 30.38 1029 4 6 0.00 0.00
12:56 am 00:56 Cloudy with Light Snow 20 -6.7 18 -7.8 92 92 NW 8 13 30.30 1026 6 10 0.00 0.00
1:48 am 01:48 Partly Cloudy 19 -7 16 -9 86 86 NNW 15 24 30.39 1029 9 14 0.00 0.00
1:56 am 01:56 Partly Cloudy 19 -7.2 16 -8.9 88 88 N 17 28 30.32 1027 10 16 0.00 0.00
2:56 am 02:56 Clear with Light Snow 17 -8.3 13 -10.6 84 84 NNW 12 19 30.33 1027 10 16 0.00 0.00
3:56 am 03:56 Partly Cloudy 15 -9.4 12 -11.1 88 88 NW 10 17 30.35 1028 10 16 0.00 0.00
4:05 am 04:05 Mostly Cloudy with Light Snow 16 -9 12 -11 86 86 NW 12 19 30.43 1031 9 14 0.00 0.00
4:56 am 04:56 Cloudy with Light Snow 18 -7.8 14 -10 84 84 NNW 12 19 30.35 1028 9 14 0.00 0.00
5:56 am 05:56 Partly Cloudy 17 -8.3 12 -11.1 80 80 NNW 9 15 30.36 1028 9 14 0.00 0.00
6:56 am 06:56 Clear 12 -11.1 8 -13.3 84 84 NW 8 13 30.38 1029 10 16 0.00 0.00
7:56 am 07:56 Sunny 16 -8.9 12 -11.1 84 84 NW 13 20 30.38 1029 10 16 0.00 0.00
8:56 am 08:56 Sunny 21 -6.1 14 -10 74 74 NW 16 26 30.39 1029 10 16 0.00 0.00
9:56 am 09:56 Sunny 25 -3.9 15 -9.4 66 66 NNW 16 26 30.38 1029 10 16 0.00 0.00
10:56 am 10:56 Sunny 28 -2.2 16 -8.9 60 60 NNW 13 20 30.40 1029 10 16 0.00 0.00
11:56 am 11:56 Sunny 31 -0.6 17 -8.3 56 56 NW 14 22 30.38 1029 10 16 0.00 0.00
12:56 pm 12:56 Sunny 33 0.6 18 -7.8 54 54 NNW 13 20 30.37 1028 10 16 0.00 0.00
1:56 pm 13:56 Sunny 33 0.6 15 -9.4 47 47 NNW 9 15 30.35 1028 10 16 0.00 0.00
2:56 pm 14:56 Sunny 34 1.1 11 -11.7 38 38 NW 10 17 30.31 1027 10 16 0.00 0.00
3:56 pm 15:56 Sunny 35 1.7 10 -12.2 35 35 NNW 10 17 30.31 1026 10 16 0.00 0.00
4:56 pm 16:56 Sunny 35 1.7 10 -12.2 35 35 NW 12 19 30.29 1026 10 16 0.00 0.00
5:56 pm 17:56 Sunny 33 0.6 8 -13.3 35 35 W 6 9 30.30 1026 10 16 0.00 0.00
6:56 pm 18:56 Clear 30 -1.1 15 -9.4 54 54 W 8 13 30.31 1027 10 16 0.00 0.00
7:56 pm 19:56 Clear 27 -2.8 12 -11.1 53 53 W 6 9 30.31 1027 10 16 0.00 0.00
8:56 pm 20:56 Clear 26 -3.3 11 -11.7 53 53 W 5 7 30.30 1026 10 16 0.00 0.00
9:56 pm 21:56 Clear 22 -5.6 13 -10.6 68 68 WSW 7 11 30.30 1026 10 16 0.00 0.00
10:56 pm 22:56 Clear 20 -6.7 12 -11.1 71 71 SW 3 6 30.28 1025 10 16 0.00 0.00
11:56 pm 23:56 Clear 19 -7.2 11 -11.7 71 71 SW 7 11 30.25 1024 10 16 0.00 0.00

Powered by AerisWeather